Weather History for Eureka, AK

Change the Weather History Date:

Wednesday, October 9, 2013

  Actual Average Record
Temperature  
Mean Temperature 30 °F -  
Max Temperature 35 °F 28 °F 42 °F (2006)
Min Temperature 26 °F 19 °F 10 °F (2008)
Degree Days  
Heating Degree Days 34    
Moisture  
Dew Point 25 °F    
Average Humidity 80    
Maximum Humidity 100    
Minimum Humidity 56    
Precipitation  
Precipitation 0.00 in - - ()
Sea Level Pressure  
Sea Level Pressure 29.31 in    
Wind  
Wind Speed 15 mph (WSW)    
Max Wind Speed 25 mph    
Max Gust Speed 34 mph    
Visibility 9 miles    
Events      
Averages and records for this station are not official NWS values.
T = Trace of Precipitation, MM = Missing Value Source: NWS Daily Summary

Daily Weather History Graph

Daily Weather History Graph

Search for Another Location

Airport:

Trip Planner

Search our weather history database for the weather conditions in past years. The results will help you decide how hot, cold, wet, or windy it might be!

Date:

Astronomy

Oct. 09, 2013 Rise Set
Actual Time 8:17 AM AKDT 6:52 PM AKDT
Civil Twilight 7:33 AM AKDT 7:36 PM AKDT
Nautical Twilight 6:42 AM AKDT 8:27 PM AKDT
Astronomical Twilight 5:49 AM AKDT 9:20 PM AKDT
Moon 2:40 PM AKDT (10/9) 9:20 PM AKDT (10/9)
Length of Visible Light 12h 03m
Length of Day
10h 34m
Waxing Crescent, 27% of the Moon is Illuminated
Oct 9
Waxing Crescent
Oct 11
First Quarter
Oct 18
Full
Oct 26
Last Quarter
Nov 3
New

Hourly Weather History & Observations

Time (AKDT) Temp. Windchill Dew Point Humidity Pressure Visibility Wind Dir Wind Speed Gust Speed Precip Events Conditions
12:16 AM 30.2 °F 20.8 °F 28.4 °F 93% 28.91 in 0.8 mi WSW 11.5 mph 16.1 mph N/A   Overcast
12:36 AM 30.2 °F 19.8 °F 28.4 °F 93% 28.91 in 1.0 mi WSW 13.8 mph 20.7 mph N/A   Overcast
12:56 AM 30.2 °F 18.9 °F 28.4 °F 93% 28.91 in 1.2 mi WSW 16.1 mph 21.9 mph N/A   Overcast
1:16 AM 30.2 °F 18.9 °F 28.4 °F 93% 28.92 in 4.0 mi WSW 16.1 mph 21.9 mph N/A   Overcast
1:36 AM 30.2 °F 19.3 °F 28.4 °F 93% 28.93 in 3.0 mi WSW 15.0 mph 21.9 mph N/A   Overcast
1:56 AM 30.2 °F 18.9 °F 28.4 °F 93% 28.94 in 1.0 mi WSW 16.1 mph 21.9 mph N/A   Overcast
2:16 AM 30.2 °F 21.3 °F 28.4 °F 93% 28.95 in 7.0 mi SW 10.4 mph - N/A   Overcast
2:36 AM 28.4 °F 18.5 °F 26.6 °F 93% 28.95 in 9.0 mi WSW 11.5 mph 17.3 mph N/A   Overcast
2:56 AM 30.2 °F 18.9 °F 28.4 °F 93% 28.96 in 10.0 mi WSW 16.1 mph 23.0 mph N/A   Overcast
3:16 AM 30.2 °F 19.3 °F 28.4 °F 93% 28.97 in 10.0 mi WSW 15.0 mph 21.9 mph N/A   Overcast
3:36 AM 28.4 °F 17.0 °F 28.4 °F 100% 28.98 in 10.0 mi WSW 15.0 mph 21.9 mph N/A   Overcast
3:56 AM 28.4 °F 17.5 °F 28.4 °F 100% 28.98 in 10.0 mi WSW 13.8 mph 23.0 mph N/A   Overcast
4:16 AM 28.4 °F 17.5 °F 28.4 °F 100% 29.00 in 4.0 mi WSW 13.8 mph 21.9 mph N/A   Overcast
4:36 AM 30.2 °F 18.9 °F 28.4 °F 93% 29.02 in 10.0 mi WSW 16.1 mph 25.3 mph N/A   Overcast
4:56 AM 28.4 °F 16.2 °F 28.4 °F 100% 29.03 in 10.0 mi WSW 17.3 mph 23.0 mph N/A   Overcast
5:16 AM 28.4 °F 15.8 °F 28.4 °F 100% 29.06 in 10.0 mi WSW 18.4 mph 23.0 mph N/A   Overcast
5:36 AM 28.4 °F 15.1 °F 28.4 °F 100% 29.07 in 10.0 mi West 20.7 mph 26.5 mph N/A   Overcast
5:56 AM 30.2 °F 17.4 °F 26.6 °F 86% 29.08 in 10.0 mi West 20.7 mph 27.6 mph N/A   Mostly Cloudy
6:16 AM 30.2 °F 18.1 °F 26.6 °F 86% 29.10 in 10.0 mi WSW 18.4 mph 25.3 mph N/A   Overcast
6:36 AM 30.2 °F 17.1 °F 26.6 °F 86% 29.11 in 10.0 mi West 21.9 mph 27.6 mph N/A   Mostly Cloudy
6:56 AM 30.2 °F 16.2 °F 26.6 °F 86% 29.12 in 10.0 mi West 25.3 mph 32.2 mph N/A   Scattered Clouds
7:16 AM 30.2 °F 16.2 °F 26.6 °F 86% 29.14 in 10.0 mi West 25.3 mph 32.2 mph N/A   Mostly Cloudy
7:36 AM 30.2 °F 18.1 °F 24.8 °F 80% 29.17 in 10.0 mi WSW 18.4 mph 25.3 mph N/A   Scattered Clouds
7:56 AM 30.2 °F 19.3 °F 24.8 °F 80% 29.18 in 10.0 mi West 15.0 mph 27.6 mph N/A   Partly Cloudy
8:16 AM 30.2 °F 18.9 °F 24.8 °F 80% 29.19 in 10.0 mi West 16.1 mph 21.9 mph N/A   Clear
8:36 AM 30.2 °F 18.9 °F 24.8 °F 80% 29.20 in 10.0 mi West 16.1 mph 27.6 mph N/A   Clear
8:56 AM 30.2 °F 18.5 °F 24.8 °F 80% 29.22 in 10.0 mi West 17.3 mph 24.2 mph N/A   Clear
9:16 AM 28.4 °F 17.0 °F 24.8 °F 86% 29.24 in 10.0 mi WSW 15.0 mph 23.0 mph N/A   Partly Cloudy
9:36 AM 28.4 °F 17.5 °F 26.6 °F 93% 29.26 in 10.0 mi WSW 13.8 mph 21.9 mph N/A   Partly Cloudy
9:56 AM 28.4 °F 16.6 °F 26.6 °F 93% 29.28 in 10.0 mi SW 16.1 mph - N/A   Clear
10:16 AM 30.2 °F 20.2 °F 26.6 °F 86% 29.29 in 10.0 mi WSW 12.7 mph 18.4 mph N/A   Mostly Cloudy
10:36 AM 30.2 °F 18.9 °F 24.8 °F 80% 29.30 in 10.0 mi WSW 16.1 mph 21.9 mph N/A   Overcast
10:56 AM 30.2 °F 18.5 °F 26.6 °F 86% 29.31 in 10.0 mi WSW 17.3 mph 24.2 mph N/A   Overcast
11:16 AM 30.2 °F 18.9 °F 26.6 °F 86% 29.33 in 10.0 mi West 16.1 mph 26.5 mph N/A   Overcast
11:36 AM 32.0 °F 20.1 °F 24.8 °F 75% 29.34 in 10.0 mi West 19.6 mph 25.3 mph N/A   Overcast
11:56 AM 32.0 °F 20.1 °F 24.8 °F 75% 29.35 in 10.0 mi WSW 19.6 mph 26.5 mph N/A   Overcast
12:16 PM 33.8 °F 22.5 °F 24.8 °F 70% 29.36 in 10.0 mi WSW 19.6 mph 26.5 mph N/A   Overcast
12:36 PM 33.8 °F 23.9 °F 24.8 °F 70% 29.38 in 10.0 mi WSW 15.0 mph 25.3 mph N/A   Overcast
12:56 PM 33.8 °F 23.2 °F 24.8 °F 70% 29.38 in 10.0 mi WSW 17.3 mph 28.8 mph N/A   Mostly Cloudy
1:16 PM 35.6 °F 25.2 °F 23.0 °F 60% 29.40 in 10.0 mi WSW 18.4 mph 28.8 mph N/A   Partly Cloudy
1:36 PM 35.6 °F 25.5 °F 23.0 °F 60% 29.41 in 10.0 mi WSW 17.3 mph 32.2 mph N/A   Clear
1:56 PM 35.6 °F 24.2 °F 21.2 °F 56% 29.42 in 10.0 mi WSW 21.9 mph 29.9 mph N/A   Clear
2:16 PM 35.6 °F 25.2 °F 21.2 °F 56% 29.43 in 10.0 mi WSW 18.4 mph 29.9 mph N/A   Clear
2:36 PM 35.6 °F 24.5 °F 21.2 °F 56% 29.43 in 10.0 mi West 20.7 mph 29.9 mph N/A   Clear
2:56 PM 35.6 °F 24.2 °F 21.2 °F 56% 29.45 in 10.0 mi WSW 21.9 mph 34.5 mph N/A   Clear
3:16 PM 35.6 °F 25.5 °F 21.2 °F 56% 29.46 in 10.0 mi WSW 17.3 mph 28.8 mph N/A   Clear
3:36 PM 35.6 °F 25.2 °F 21.2 °F 56% 29.47 in 10.0 mi WSW 18.4 mph 32.2 mph N/A   Clear
3:56 PM 35.6 °F 24.8 °F 21.2 °F 56% 29.48 in 10.0 mi WSW 19.6 mph 26.5 mph N/A   Clear
4:16 PM 35.6 °F 25.5 °F 21.2 °F 56% 29.49 in 10.0 mi WSW 17.3 mph 24.2 mph N/A   Clear
4:36 PM 35.6 °F 25.9 °F 21.2 °F 56% 29.50 in 10.0 mi West 16.1 mph 24.2 mph N/A   Clear
4:56 PM 33.8 °F 22.8 °F 21.2 °F 60% 29.51 in 10.0 mi West 18.4 mph 23.0 mph N/A   Clear
5:16 PM 35.6 °F 27.1 °F 21.2 °F 56% 29.52 in 10.0 mi WSW 12.7 mph - N/A   Partly Cloudy
5:36 PM 33.8 °F 23.9 °F 21.2 °F 60% 29.53 in 10.0 mi WSW 15.0 mph - N/A   Partly Cloudy
5:56 PM 33.8 °F 23.5 °F 21.2 °F 60% 29.53 in 10.0 mi WSW 16.1 mph 21.9 mph N/A   Clear
6:16 PM 32.0 °F 23.0 °F 21.2 °F 64% 29.54 in 10.0 mi WSW 11.5 mph - N/A   Clear
6:36 PM 30.2 °F 21.9 °F 23.0 °F 75% 29.55 in 10.0 mi WSW 9.2 mph - N/A   Clear
6:56 PM 30.2 °F 20.8 °F 21.2 °F 69% 29.55 in 10.0 mi WSW 11.5 mph - N/A   Clear
7:16 PM 28.4 °F 20.4 °F 23.0 °F 80% 29.56 in 10.0 mi West 8.1 mph - N/A   Clear
7:36 PM 28.4 °F 19.1 °F 23.0 °F 80% 29.56 in 10.0 mi West 10.4 mph - N/A   Clear
7:56 PM 28.4 °F 19.7 °F 23.0 °F 80% 29.56 in 10.0 mi West 9.2 mph - N/A   Clear
8:16 PM 28.4 °F 18.5 °F 23.0 °F 80% 29.57 in 10.0 mi West 11.5 mph - N/A   Clear
8:36 PM 28.4 °F 19.1 °F 24.8 °F 86% 29.59 in 10.0 mi West 10.4 mph - N/A   Clear
8:56 PM 28.4 °F 19.7 °F 24.8 °F 86% 29.59 in 10.0 mi West 9.2 mph - N/A   Clear
9:16 PM 26.6 °F 16.8 °F 23.0 °F 86% 29.59 in 10.0 mi West 10.4 mph - N/A   Clear
9:36 PM 26.6 °F 17.5 °F 23.0 °F 86% 29.60 in 10.0 mi WNW 9.2 mph - N/A   Clear
9:56 PM 26.6 °F 18.2 °F 24.8 °F 93% 29.61 in 10.0 mi West 8.1 mph - N/A   Clear
10:16 PM 26.6 °F 19.1 °F 24.8 °F 93% 29.61 in 10.0 mi West 6.9 mph - N/A   Clear
10:36 PM 26.6 °F 18.2 °F 23.0 °F 86% 29.61 in 10.0 mi WSW 8.1 mph - N/A   Clear
10:56 PM 26.6 °F 20.0 °F 24.8 °F 93% 29.62 in 10.0 mi West 5.8 mph - N/A   Scattered Clouds
11:16 PM 26.6 °F 19.1 °F 24.8 °F 93% 29.63 in 10.0 mi West 6.9 mph - N/A   Scattered Clouds
11:36 PM 26.6 °F 20.0 °F 23.0 °F 86% 29.63 in 10.0 mi West 5.8 mph - N/A   Scattered Clouds
11:56 PM 26.6 °F 19.1 °F 23.0 °F 86% 29.63 in 10.0 mi NW 6.9 mph - N/A   Partly Cloudy